Wind_Speed
75 76 77 77 78 78 78 78 78 78 78 79 81 82 82 83 84 86 87 88 88 90 91 91 91 92 92 92 93 95 96 98 98 99 100 100 99 98 95 93 90 86 81 76 71 68 66 65 66 67 68 67 65 65 65 65 65 64 64 66 68 69 69 69 70 71 77 85 91 95 98 102 106 107 106 103 104 109 107 98 94 95 99 103 101
77 77 78 78 78 79 79 78 79 79 80 82 83 83 84 85 87 88 90 90 91 92 93 93 94 94 95 95 96 98 98 99 100 99 99 98 96 94 91 88 85 81 77 72 68 66 64 63 63 65 66 65 63 63 64 65 65 63 63 64 66 68 68 68 69 69 72 79 87 91 95 100 105 109 110 106 103 105 110 107 100 94 95 101 102
78 78 79 79 80 80 80 80 80 82 83 84 84 85 87 88 90 91 93 93 94 94 94 95 96 97 98 98 99 99 100 101 100 98 97 95 92 89 86 82 79 76 73 69 66 64 63 63 62 62 64 64 62 62 63 65 64 63 62 63 66 67 67 67 67 68 69 73 80 87 92 96 102 109 112 112 107 103 105 110 109 103 98 100 102
79 79 80 81 81 82 82 82 83 84 85 86 87 88 89 91 93 94 95 95 96 96 96 97 99 99 100 100 100 101 101 102 100 96 93 90 88 84 80 76 73 71 69 67 65 63 63 62 62 61 62 62 61 61 62 64 64 63 62 63 65 66 66 66 65 66 67 69 74 81 88 92 98 105 110 113 113 107 102 103 107 107 106 105 104
80 80 82 82 83 83 83 84 86 87 87 88 90 91 93 94 95 96 96 97 97 97 98 99 100 101 101 101 101 102 102 102 99 93 88 85 82 78 74 71 69 67 66 65 64 64 63 62 62 61 61 61 60 60 61 63 63 63 62 62 63 65 65 65 64 65 66 68 70 75 83 89 93 99 105 110 114 113 107 101 101 102 106 110 110
81 82 83 84 84 85 85 86 88 88 90 91 92 94 95 96 97 97 97 98 98 99 100 101 101 102 102 103 103 102 102 100 95 87 81 80 77 73 70 67 65 64 63 64 64 64 63 62 61 61 60 59 59 59 60 62 62 62 62 61 62 64 65 64 64 64 65 66 68 71 76 84 89 93 99 106 111 114 112 106 101 99 101 107 113
82 83 84 85 86 86 87 88 89 90 91 93 94 96 97 97 97 98 98 98 99 100 101 102 103 103 103 103 102 101 100 96 88 81 77 75 73 69 67 65 63 61 62 62 63 63 63 62 61 60 59 58 58 58 58 60 61 61 61 61 61 63 64 64 64 64 64 64 66 68 71 77 84 88 93 101 108 112 114 111 105 100 99 103 110
84 85 85 86 87 88 88 89 91 92 93 95 96 97 97 98 98 98 99 100 100 101 102 103 103 103 103 102 100 98 95 89 82 77 73 71 69 67 65 63 61 60 60 61 62 62 62 61 60 60 59 58 58 58 58 59 60 60 60 61 61 62 64 65 64 64 63 63 64 66 68 71 77 83 88 94 101 107 112 114 110 104 100 101 107
85 86 87 87 88 89 90 91 93 94 95 96 97 97 97 98 99 99 100 101 102 103 103 103 103 102 101 98 95 92 88 83 77 73 71 69 67 65 64 63 61 60 59 60 61 61 61 61 60 60 59 58 58 58 57 58 59 60 60 60 61 62 63 64 64 64 63 63 62 63 65 67 71 76 81 87 94 100 107 111 112 108 104 101 105
86 87 87 88 90 91 92 93 94 95 96 97 97 98 98 99 100 101 102 102 103 103 103 102 101 99 96 92 89 86 82 78 74 71 69 67 66 64 63 62 61 60 59 59 60 60 60 59 59 59 59 58 58 58 57 57 58 59 59 59 60 61 62 63 63 63 64 63 62 62 63 64 67 71 75 80 86 94 100 106 109 110 107 104 103
87 88 89 90 91 93 93 94 95 96 97 98 99 99 100 101 102 102 103 103 103 102 101 100 98 94 90 87 83 81 78 74 72 69 67 65 64 63 62 62 61 60 58 58 58 58 58 58 58 58 58 58 58 58 57 56 57 58 58 58 59 60 61 62 62 63 64 63 63 62 61 62 65 68 71 74 79 85 92 100 105 108 109 107 104
88 89 90 92 93 94 95 96 97 98 99 99 100 100 101 102 103 103 103 103 102 101 99 97 93 89 85 82 79 77 74 71 69 67 65 63 61 61 62 62 61 58 57 56 56 56 56 56 57 57 57 57 57 57 56 55 56 57 58 58 58 59 60 61 62 63 63 63 63 62 60 61 63 66 69 71 73 78 84 92 100 105 108 109 107
90 91 92 93 94 95 97 98 98 99 100 100 101 101 102 102 103 103 103 102 101 99 96 93 88 84 81 79 77 74 71 68 66 64 62 60 59 60 63 63 60 57 55 55 55 55 54 54 54 55 56 56 56 57 56 55 56 57 57 57 57 58 59 61 62 62 63 63 62 62 62 62 63 64 67 69 70 73 77 83 91 99 104 107 108
92 93 94 95 96 97 98 99 99 100 101 101 102 102 102 102 102 102 101 99 97 95 91 88 84 81 78 76 74 71 69 66 63 61 60 59 58 60 62 61 58 55 54 54 53 53 53 53 53 53 54 55 55 56 57 56 56 56 56 56 56 57 58 59 60 61 62 62 62 62 63 63 63 64 65 67 68 70 72 76 82 90 96 101 105
94 95 96 97 98 99 99 100 100 101 101 102 102 102 102 101 101 100 98 96 93 89 85 82 79 77 75 73 71 69 67 65 62 60 59 58 58 59 61 59 56 54 54 53 52 51 51 52 52 52 53 54 55 56 56 56 56 55 55 55 55 56 57 57 59 60 61 62 62 63 63 64 64 64 65 65 66 68 70 72 75 81 87 92 97
96 96 97 98 99 100 100 101 101 101 101 101 101 101 100 100 99 97 94 91 88 84 80 77 75 72 70 69 68 66 65 63 61 59 58 57 57 58 58 57 54 53 52 52 51 50 50 51 51 51 52 52 53 55 55 56 55 54 54 54 54 55 56 56 58 59 60 61 62 63 63 64 64 64 64 64 65 67 68 69 71 74 79 83 87
97 98 99 99 100 100 101 101 101 101 101 101 100 100 99 97 95 93 90 86 82 79 76 73 70 68 66 65 64 63 62 61 59 57 56 55 56 56 55 54 52 51 51 50 49 48 49 49 50 50 51 51 52 53 54 55 55 54 53 53 54 54 55 56 57 58 59 61 62 63 63 64 64 63 63 64 64 65 66 66 68 71 74 77 80
99 99 100 100 100 101 101 101 101 101 101 100 99 98 97 94 91 87 84 80 77 73 70 68 66 64 63 62 61 59 58 57 56 54 53 52 54 54 53 51 50 49 48 48 47 47 47 48 48 49 49 50 50 51 53 54 54 53 53 52 53 53 54 55 56 57 58 60 61 62 63 64 64 64 64 64 64 65 65 65 66 68 70 73 76
100 100 100 100 101 101 101 101 101 101 100 99 98 96 94 90 86 82 78 74 71 68 65 63 62 60 60 59 58 56 55 54 52 51 49 49 51 52 51 49 48 46 46 46 45 45 46 46 47 48 48 49 49 50 51 53 53 53 53 52 52 52 53 55 55 56 57 58 60 61 63 64 65 65 65 65 65 66 67 67 68 68 68 71 73
100 100 101 101 101 101 101 100 100 99 98 97 95 92 89 85 80 76 72 69 65 62 60 59 58 57 56 55 54 53 52 51 49 48 47 47 48 50 49 47 45 44 43 44 44 44 45 45 46 46 47 48 49 49 51 52 52 53 53 52 51 52 53 55 55 55 56 58 59 60 61 63 64 65 65 66 67 68 69 70 70 70 70 71 72
100 100 100 100 100 99 99 99 98 97 95 93 90 86 82 79 75 71 67 64 61 59 57 56 55 54 53 52 51 50 50 49 47 46 45 45 46 47 47 45 43 42 42 43 43 43 43 43 43 44 46 47 48 49 50 51 52 52 52 51 51 52 53 54 54 55 56 56 58 59 60 61 62 63 65 67 68 70 71 71 72 73 73 73 74
99 99 99 99 98 98 97 96 95 93 91 88 84 80 76 73 70 66 62 60 58 56 55 53 52 51 50 49 48 47 47 46 45 43 43 42 43 45 45 43 42 41 41 40 40 39 39 40 41 43 44 45 46 48 49 50 51 51 50 50 51 52 52 52 53 54 54 55 56 57 58 59 60 62 64 66 68 70 71 72 73 74 75 75 76
99 98 98 97 96 95 94 93 91 88 85 81 78 74 71 68 65 62 59 57 55 53 52 51 50 48 47 46 45 44 44 43 42 41 40 40 41 42 43 42 41 40 38 37 37 37 38 39 41 43 44 44 45 46 48 49 49 48 48 49 50 51 51 51 51 52 52 53 54 55 56 57 58 60 62 65 68 70 70 71 72 74 75 76 77
98 97 96 95 93 92 91 88 86 82 79 75 72 69 66 63 60 58 56 54 52 50 48 47 46 45 44 43 42 42 41 41 40 39 39 38 39 40 41 40 38 37 36 35 35 36 37 39 40 41 42 43 43 45 46 46 46 46 47 48 49 49 49 49 50 50 51 52 53 54 55 56 57 59 62 64 67 69 69 70 71 73 74 76 77
96 94 93 92 91 89 86 83 80 77 73 70 67 64 61 58 56 54 52 50 48 47 45 44 43 42 41 40 40 39 38 38 38 38 37 37 37 38 39 38 37 36 36 34 34 35 36 37 38 40 41 41 42 43 43 43 44 44 45 46 47 48 49 49 50 50 51 52 53 53 54 56 57 59 60 62 63 65 67 68 68 69 71 72 74
92 91 90 89 87 84 81 77 74 71 68 65 62 59 57 55 53 51 49 47 45 44 43 42 41 40 39 38 37 36 36 36 36 36 36 35 35 36 37 36 36 35 34 33 33 34 35 36 37 38 39 40 41 41 42 42 43 44 45 46 47 48 48 49 50 50 51 51 52 52 53 54 55 56 57 58 59 60 61 62 63 64 65 66 68
90 88 86 84 81 79 76 73 69 66 63 60 58 55 54 52 49 47 45 44 42 41 39 38 38 37 36 35 33 33 33 34 35 35 35 34 34 34 35 34 34 34 33 32 33 33 34 35 36 37 38 38 39 40 41 42 43 44 45 46 46 47 48 49 49 49 50 50 51 51 52 52 53 53 54 55 55 56 56 56 57 58 59 61 61
87 85 82 79 77 74 71 68 65 61 59 56 54 52 50 48 46 44 43 41 40 38 37 36 35 34 33 32 31 30 31 32 33 33 33 33 32 32 32 33 32 32 32 32 32 33 33 34 35 36 36 37 38 40 41 42 43 44 44 45 46 46 47 47 48 48 48 49 49 49 50 50 51 52 53 53 53 53 53 53 53 53 55 56 56
83 80 78 75 73 70 66 64 61 57 55 53 51 49 47 45 43 41 40 39 37 36 35 33 32 31 30 29 28 28 29 30 31 32 32 32 31 30 30 30 30 30 31 31 32 32 32 33 34 35 36 37 38 39 41 42 43 43 44 44 45 45 45 45 45 45 46 47 47 48 48 49 50 51 51 51 51 52 52 51 51 51 51 52 52
79 77 74 72 69 65 62 59 57 54 52 50 48 46 44 42 41 39 38 36 34 33 33 32 30 28 27 26 26 26 27 28 30 30 30 30 29 28 27 28 29 29 30 31 31 31 32 33 34 35 36 36 37 38 40 41 41 41 42 42 42 43 43 43 43 44 45 46 46 47 48 48 49 49 50 50 50 50 50 50 50 49 49 49 49
75 73 71 68 65 62 59 56 53 51 49 48 45 42 40 39 39 38 36 35 32 30 30 30 29 26 24 23 24 25 25 26 28 28 28 27 27 26 26 27 28 28 29 29 30 30 31 32 33 34 34 35 36 37 38 39 39 39 40 40 41 41 41 41 42 43 44 45 46 47 47 48 48 48 49 49 49 49 49 49 49 48 48 48 47
73 70 68 65 62 59 56 53 50 49 47 45 43 40 36 35 36 36 36 34 33 30 28 27 27 25 23 22 22 23 24 24 25 26 26 25 25 24 25 25 26 27 28 29 29 30 31 31 32 33 33 33 34 35 36 36 36 37 38 38 39 38 38 39 40 41 42 43 44 44 45 46 46 47 48 48 48 48 48 47 47 47 46 46 46
70 68 65 62 59 57 55 52 49 47 44 42 40 37 35 33 33 33 33 33 32 31 29 27 25 24 23 22 21 21 22 23 23 23 24 24 23 23 24 25 26 28 28 28 29 30 30 30 31 31 32 32 32 33 33 33 34 35 35 35 35 35 35 35 36 37 37 38 38 38 39 39 41 42 44 46 47 47 46 46 46 45 44 44 44
67 65 62 60 58 56 53 50 47 44 42 39 37 35 33 32 31 31 31 31 31 31 30 28 26 23 22 21 21 21 21 21 22 22 23 23 23 23 24 25 27 27 28 28 28 29 29 29 29 30 30 30 30 30 30 31 31 32 33 33 34 34 34 35 35 35 36 36 36 36 35 36 36 37 39 42 45 45 45 44 44 43 42 42 42
64 62 60 58 56 53 50 46 43 41 38 36 34 33 32 31 31 30 31 30 30 29 29 29 28 25 22 21 21 21 21 21 21 22 23 23 23 24 25 26 27 27 27 27 27 28 28 28 28 28 28 28 28 29 28 28 29 31 32 33 33 34 35 36 36 37 38 38 37 37 37 36 36 36 38 40 42 43 43 42 42 41 40 40 40
61 59 56 53 50 47 45 42 39 37 35 33 32 31 31 31 31 31 31 31 30 29 29 29 28 27 25 22 21 22 22 22 22 23 23 23 24 25 26 27 27 27 27 26 26 26 27 27 27 27 27 27 27 27 27 28 29 30 30 31 33 34 36 37 39 39 39 39 38 38 38 38 37 37 38 39 40 41 41 40 39 39 39 39 39
57 53 49 46 44 41 39 37 36 34 33 32 31 31 31 31 31 31 31 31 30 30 29 28 28 28 26 24 23 23 23 23 23 23 23 24 24 25 26 26 27 27 27 25 25 25 25 25 25 25 25 25 25 25 26 26 27 27 28 30 33 35 37 39 40 40 40 40 39 39 39 39 38 38 37 37 38 38 38 38 37 37 37 37 37
50 46 43 40 38 36 35 34 33 32 32 31 31 31 31 31 31 31 31 31 30 30 30 29 28 28 27 26 24 24 24 24 23 23 23 23 24 24 25 25 26 26 26 25 24 23 22 22 23 23 23 23 24 24 24 24 25 26 28 31 33 35 36 38 39 39 39 39 39 39 39 38 37 36 36 36 36 36 36 35 35 35 35 36 36
43 41 39 37 35 33 32 32 31 31 31 31 31 31 31 31 31 31 31 31 30 30 30 29 28 27 27 26 25 24 24 24 24 23 23 23 23 23 23 24 24 25 25 24 23 21 20 20 21 22 22 23 23 22 22 22 23 24 25 26 27 28 30 31 32 33 34 35 35 35 35 35 34 33 33 34 34 34 33 33 34 34 34 34 34
39 38 37 36 35 34 33 32 31 31 31 31 31 31 31 31 31 31 30 30 29 28 28 28 28 27 27 26 25 24 24 24 24 23 23 22 22 22 22 23 23 23 24 23 21 19 18 19 20 21 21 21 21 19 19 19 19 19 18 18 17 17 18 20 22 24 26 27 28 29 29 30 30 30 30 31 31 31 31 31 32 32 32 32 33
38 37 37 36 36 35 34 33 33 32 32 32 32 32 32 31 31 30 29 28 28 27 27 26 26 26 26 26 25 24 23 23 22 22 22 21 21 21 22 22 22 22 23 22 20 18 17 18 20 20 20 19 18 17 16 16 16 15 14 13 12 12 13 14 16 18 20 21 23 24 25 25 26 27 28 28 29 29 29 29 30 30 30 31 31
39 39 38 37 37 36 35 35 34 34 33 33 32 32 31 31 30 30 29 28 27 27 26 26 25 24 24 24 24 24 23 22 21 21 21 21 20 21 22 22 22 21 21 20 18 17 17 19 19 19 19 17 16 15 16 16 15 15 14 13 12 12 13 13 14 16 17 18 20 21 22 23 24 25 26 26 27 27 27 27 28 29 29 30 30
40 40 39 39 38 37 37 36 35 35 34 33 33 32 32 31 30 30 29 29 28 27 26 26 25 24 23 23 23 23 22 22 21 20 20 20 20 20 21 22 21 21 20 19 17 17 18 19 19 18 17 16 15 15 16 16 16 15 14 13 13 13 13 14 15 16 17 18 19 20 20 21 22 23 23 24 24 25 25 26 27 28 28 29 29
42 42 41 41 40 40 39 38 37 36 36 35 34 33 33 32 32 31 30 30 29 28 27 26 25 24 23 22 22 22 22 21 20 19 19 19 19 20 21 21 21 20 19 18 17 17 18 19 18 17 16 15 15 15 17 17 16 15 15 13 13 13 13 14 15 16 16 17 17 18 19 19 20 21 21 22 23 24 24 25 26 26 27 27 28
44 43 43 43 42 41 41 40 39 38 37 36 35 34 33 33 32 32 32 31 30 29 28 27 26 25 24 23 22 21 21 21 20 19 19 19 19 20 21 21 21 19 18 18 18 18 18 19 18 17 15 15 14 15 17 17 16 16 14 13 13 13 14 14 15 15 16 16 16 17 17 18 19 20 20 21 22 23 23 24 24 25 26 26 27
45 44 43 43 42 41 40 39 38 37 36 35 34 33 33 32 31 31 31 31 30 30 29 28 27 26 25 24 22 21 21 21 21 19 19 19 19 20 21 21 21 19 18 18 18 18 18 18 17 16 15 14 14 16 17 17 17 16 14 13 13 13 14 14 15 15 15 15 16 16 17 17 18 19 19 20 21 21 22 23 24 24 25 25 25
46 45 44 43 41 40 39 38 37 36 35 34 32 31 30 30 29 28 28 28 28 28 27 27 26 25 25 24 23 21 20 20 20 20 19 19 19 20 21 21 21 19 19 18 18 19 18 18 17 16 14 13 14 16 17 17 17 16 15 14 14 14 14 14 14 14 14 15 15 16 16 16 17 17 18 18 19 20 21 22 23 24 24 24 23
46 45 44 43 42 41 40 38 37 36 35 33 31 30 29 28 27 26 25 24 24 23 23 23 23 23 23 24 23 22 21 20 20 20 19 19 19 20 21 21 21 20 19 19 19 19 18 17 16 15 13 12 13 15 17 17 16 15 14 14 14 14 14 13 13 14 14 14 14 15 15 15 15 15 16 16 17 18 19 21 21 22 21 20 19
45 44 43 42 41 40 39 38 37 36 35 33 31 29 28 26 25 24 23 22 21 20 20 20 20 20 21 22 23 23 22 21 20 20 20 19 19 20 21 21 21 20 19 19 19 19 18 17 16 14 12 12 13 15 17 17 16 15 14 14 14 14 14 13 13 13 13 13 13 12 12 12 12 13 13 14 15 15 16 16 16 16 16 17 17
43 41 40 39 38 37 36 35 34 34 33 32 31 29 27 25 24 22 21 20 19 18 18 17 17 17 18 19 22 23 22 21 21 21 20 20 20 20 21 21 21 20 20 20 19 19 18 17 16 14 12 12 14 16 17 16 15 15 14 14 14 14 13 13 13 12 12 11 10 9 9 9 10 10 11 11 11 12 12 13 15 16 16 17 16
41 39 38 36 35 34 33 32 31 30 30 29 28 28 26 25 23 21 20 19 18 17 16 16 16 15 16 17 20 22 22 22 21 21 21 21 20 21 21 21 21 21 20 20 20 19 18 17 16 13 12 13 15 16 16 15 15 14 14 14 13 13 13 12 11 10 9 9 8 8 9 9 10 11 12 13 13 13 13 14 14 15 14 14 12
Wind_Direction
297 297 298 298 298 298 298 297 296 296 296 296 296 296 295 296 296 297 298 298 299 298 298 298 297 297 296 296 296 296 296 296 296 296 295 295 294 293 292 290 288 285 282 278 274 270 266 263 261 261 261 260 259 259 258 257 256 255 253 251 249 247 245 244 240 234 231 230 228 226 225 223 221 219 219 220 221 222 222 222 223 225 226 225 225
297 298 298 299 299 298 298 297 297 297 297 296 296 296 297 298 298 299 299 300 299 299 298 298 298 297 297 297 297 297 296 296 296 295 295 294 292 291 289 287 285 282 279 275 271 267 264 261 259 259 259 258 257 256 256 255 255 254 253 251 248 246 245 244 241 236 232 231 230 228 226 224 221 220 219 219 220 221 222 222 222 223 225 225 225
298 298 299 299 299 299 298 298 297 297 297 297 297 298 299 300 300 300 300 300 300 299 299 298 298 298 298 298 297 297 296 296 296 295 294 292 291 289 287 284 282 279 276 273 269 265 262 260 257 256 257 257 255 254 254 254 254 254 253 251 247 245 245 244 242 239 234 232 231 229 227 225 223 221 220 220 220 220 221 223 224 224 225 225 225
298 299 299 299 299 299 298 298 298 298 299 299 300 300 301 301 301 301 301 300 300 299 299 299 298 298 298 298 297 297 296 296 296 295 293 291 288 286 284 281 278 276 273 270 267 263 261 259 257 255 255 255 255 254 253 253 254 254 253 251 248 245 244 244 243 241 237 233 232 231 229 227 225 224 223 222 222 221 221 222 224 225 225 226 226
299 299 299 299 299 299 299 299 300 300 301 301 301 301 301 301 301 301 300 300 300 299 299 299 299 298 298 298 297 297 296 296 296 295 292 288 286 284 281 279 276 273 270 267 265 263 260 258 257 255 254 253 253 252 252 252 253 253 253 252 248 245 243 243 243 242 239 234 232 233 231 228 226 226 225 224 223 223 222 221 222 223 223 225 226
298 299 299 299 299 299 300 301 301 301 301 301 301 301 301 301 301 301 300 300 300 299 299 299 299 298 298 298 298 297 296 296 295 293 289 286 284 282 279 277 274 270 266 264 263 262 260 258 257 255 254 252 251 251 250 251 251 253 253 251 249 245 243 243 242 242 240 237 233 232 233 231 228 227 227 227 225 224 224 223 222 223 223 222 224
298 298 299 300 300 301 301 301 301 301 301 301 301 301 301 301 300 300 300 300 299 299 299 299 299 299 298 298 297 296 295 295 294 291 287 284 282 280 278 275 272 268 264 262 261 261 260 258 257 255 254 252 251 249 249 249 249 251 252 251 249 245 243 242 242 241 241 239 235 233 233 233 231 229 228 228 226 225 225 224 223 224 224 223 222
299 300 300 301 301 301 301 301 301 301 301 301 301 301 301 301 300 300 300 300 299 299 299 299 299 299 298 298 297 295 295 294 292 289 286 284 282 280 277 274 271 267 263 260 260 260 259 258 256 255 253 251 249 249 248 247 247 249 250 251 249 245 243 241 241 241 241 240 237 234 233 233 233 231 230 229 228 227 226 225 224 224 225 225 224
300 300 300 300 300 300 300 300 300 300 300 301 301 301 301 301 300 300 300 300 300 300 300 300 299 299 298 297 296 294 293 292 291 288 286 284 282 280 277 274 270 266 262 259 258 258 258 257 256 255 253 251 249 248 247 246 246 247 249 249 248 245 243 241 241 241 241 240 238 236 234 234 234 233 232 231 229 229 228 227 225 224 224 225 225
300 300 300 300 300 300 300 300 300 300 301 301 301 301 300 300 300 300 300 300 300 300 300 300 299 298 297 295 294 292 291 290 289 287 285 283 281 279 276 273 269 266 262 258 257 257 257 256 255 254 253 251 249 248 247 246 246 247 248 248 248 246 243 241 241 240 240 240 239 237 234 234 234 234 233 232 231 230 229 229 227 226 225 224 225
299 299 299 299 300 300 300 300 300 300 300 300 300 300 300 299 300 300 300 300 301 300 300 299 298 297 295 293 291 290 289 288 286 285 284 282 280 278 275 272 268 265 262 258 257 256 256 255 254 253 252 251 249 248 247 246 246 246 247 247 246 245 243 241 240 240 240 240 239 238 236 234 235 235 234 233 232 231 230 230 229 227 226 225 224
299 299 299 299 299 299 299 300 300 300 300 300 300 300 300 300 300 301 301 301 301 300 299 298 296 295 293 291 289 287 286 285 284 283 282 281 279 277 274 270 267 265 261 259 257 256 255 254 252 251 250 250 248 247 247 246 245 246 247 247 245 244 243 241 240 239 239 239 239 239 237 235 235 236 235 234 233 232 231 231 230 229 228 226 225
299 299 299 299 299 300 300 300 300 300 300 300 300 300 300 301 301 301 301 301 300 300 298 297 295 293 291 289 287 286 285 283 282 281 280 279 277 275 273 270 268 265 261 258 256 255 254 253 252 250 249 248 247 247 246 246 245 245 246 247 245 243 242 241 240 239 239 239 238 238 238 237 236 236 236 235 234 233 232 231 231 230 230 228 226
299 299 300 300 300 300 300 300 300 300 300 300 301 301 302 302 302 302 301 301 300 299 297 296 294 292 290 288 287 285 284 282 280 279 278 277 275 273 272 270 269 266 261 257 256 255 254 252 251 249 248 248 247 246 246 245 244 244 246 246 245 243 242 241 240 240 239 239 238 238 238 238 237 236 237 237 236 235 233 232 231 231 231 230 229
300 300 301 301 301 301 301 301 301 301 301 302 302 302 302 302 302 302 301 300 299 298 296 294 292 290 289 287 286 284 282 280 278 277 275 274 273 271 270 269 268 265 261 257 255 254 253 251 249 248 248 247 246 245 245 245 245 245 245 246 245 244 242 241 240 240 239 239 238 238 238 238 238 237 238 238 237 237 236 234 232 232 232 232 231
301 301 301 301 301 301 301 301 302 302 302 302 302 303 303 303 302 302 301 300 298 297 295 292 290 289 287 285 284 282 280 278 276 274 273 271 270 269 269 268 267 264 261 257 254 252 251 250 248 247 247 246 246 245 245 245 245 245 245 245 245 243 242 241 240 240 239 239 238 238 238 238 238 238 238 238 238 238 238 237 235 234 232 232 232
302 302 302 302 302 302 302 302 303 303 303 303 303 303 303 303 302 301 300 299 297 295 293 291 289 287 286 284 282 280 278 276 274 272 270 270 269 268 268 267 265 262 259 256 253 251 250 249 247 246 245 245 245 244 244 245 245 245 245 245 245 244 242 241 241 240 240 239 239 239 239 239 239 239 238 239 238 238 239 239 239 237 234 233 233
303 303 303 303 303 303 303 303 303 303 303 303 303 304 303 303 302 301 299 298 296 294 292 290 288 287 285 283 281 279 277 275 273 271 269 268 267 267 266 265 263 261 258 255 252 250 248 247 246 245 244 244 244 244 244 245 245 245 245 244 244 243 243 242 241 241 240 240 239 240 239 239 239 239 240 240 240 240 239 239 240 240 238 235 234
303 304 304 304 304 304 304 304 304 304 304 304 304 304 304 303 302 300 298 297 295 292 291 289 287 286 284 282 280 279 277 275 273 270 267 266 266 266 265 264 262 259 256 254 251 249 247 246 245 244 242 242 243 244 244 245 246 246 245 244 243 243 243 243 242 242 241 241 240 240 240 240 241 241 241 241 241 242 241 240 241 242 242 240 238
304 304 305 305 305 305 305 305 305 305 305 305 305 305 304 303 301 299 298 296 294 292 290 289 287 285 284 282 281 279 276 274 272 269 267 265 265 265 264 264 262 259 255 252 249 247 246 245 245 244 243 241 242 243 245 245 245 245 245 244 242 242 242 242 242 242 242 242 241 241 241 241 242 242 243 243 243 243 243 243 242 243 243 244 243
305 305 305 305 305 305 305 305 305 306 306 306 306 305 304 302 300 299 297 295 294 292 290 288 286 285 284 282 280 278 275 273 270 268 265 263 263 264 264 263 262 258 253 249 247 246 245 246 246 245 244 243 242 243 243 244 244 243 243 243 242 242 242 242 242 242 243 243 243 243 242 242 243 243 244 244 245 245 245 245 244 244 244 244 245
305 305 305 305 305 305 305 306 306 306 306 306 305 304 303 301 300 298 297 295 294 292 290 288 286 284 283 281 279 277 274 271 269 266 263 262 262 263 263 262 260 257 253 249 247 246 245 245 245 245 244 242 241 241 242 242 243 242 241 241 241 241 242 242 243 243 244 244 244 244 244 244 244 244 244 245 245 245 245 245 246 246 245 245 245
306 306 306 306 306 306 306 306 306 306 306 305 304 303 302 300 299 298 297 296 294 292 290 288 286 284 282 280 279 276 273 270 268 265 262 260 260 262 262 261 260 258 254 250 246 244 243 243 243 243 243 241 241 241 241 241 242 241 241 240 241 242 242 243 244 245 245 246 246 246 245 245 245 245 245 245 246 246 246 246 247 247 247 247 246
306 306 306 306 306 307 307 306 306 306 305 304 303 302 301 300 299 298 297 296 294 293 291 289 286 284 281 280 278 276 273 270 267 264 261 259 259 261 262 261 260 257 253 248 244 242 242 242 242 243 243 242 241 241 241 241 241 241 241 241 241 242 243 244 244 245 245 245 245 245 245 245 245 245 246 247 247 248 248 248 248 248 248 248 247
307 307 307 307 307 307 307 306 306 305 305 304 303 302 301 300 299 298 297 296 294 293 292 290 288 285 282 279 277 275 272 269 266 264 261 259 259 260 261 260 258 255 252 247 243 241 241 241 241 242 242 242 241 241 241 241 241 241 241 241 242 242 242 242 242 243 243 243 243 244 244 244 245 245 247 248 249 250 250 249 248 248 247 247 246
307 307 307 307 307 307 306 306 306 305 304 303 302 301 300 300 299 297 296 295 294 294 293 291 288 285 282 278 276 273 271 268 265 263 261 259 259 259 259 258 255 252 250 246 242 240 239 239 240 240 241 241 241 242 241 241 241 241 241 242 242 242 242 242 242 242 242 242 242 243 243 244 245 246 246 247 248 249 249 249 248 247 246 244 243
307 307 307 307 307 306 306 306 305 304 303 302 302 301 300 299 298 297 295 295 295 295 293 291 288 285 282 279 275 271 268 266 264 262 261 259 258 257 257 255 253 251 247 244 241 239 239 238 239 239 240 240 241 241 242 242 242 242 242 243 243 243 243 242 242 241 241 242 242 242 243 244 244 245 245 246 247 248 249 249 248 248 246 244 242
307 307 307 307 306 306 306 305 305 304 303 302 301 300 299 298 296 295 295 295 296 295 293 291 288 285 282 279 275 270 266 264 263 262 261 260 258 256 255 253 251 249 246 243 240 239 238 238 238 239 239 240 241 242 242 243 243 243 244 244 244 244 243 243 242 241 241 242 242 242 242 243 243 244 245 245 246 247 248 249 249 248 248 246 242
307 307 307 307 306 306 306 305 304 303 302 301 300 300 298 296 294 294 294 295 296 295 293 291 289 286 283 279 275 270 267 265 263 262 262 260 258 255 253 251 249 246 244 242 240 239 239 239 239 239 239 240 241 242 243 244 244 245 245 245 244 244 244 243 243 242 242 241 241 241 242 242 242 243 244 245 246 247 248 248 248 248 248 247 244
307 307 307 307 306 306 305 304 303 302 301 300 299 298 296 294 293 293 293 294 294 293 292 291 289 285 282 279 275 270 267 265 263 262 260 259 257 254 251 248 246 244 243 242 241 240 240 240 239 240 240 241 241 242 244 245 245 245 245 245 245 245 245 244 244 243 242 241 241 241 241 242 242 243 244 245 246 247 247 248 248 248 247 247 245
307 307 307 307 306 306 304 303 302 301 299 299 298 295 293 292 292 293 293 294 293 291 290 290 289 286 281 277 273 269 266 263 262 261 259 257 255 251 247 245 244 244 243 242 242 242 241 241 240 240 241 241 241 242 243 244 244 245 245 244 244 244 243 243 242 242 242 242 242 242 243 243 243 243 243 244 244 245 246 247 247 247 247 246 245
308 307 307 307 306 305 304 302 301 299 298 297 296 293 290 289 290 291 293 294 294 292 290 288 287 285 281 275 270 267 264 262 260 259 258 255 252 248 245 244 244 243 242 242 242 242 241 241 241 240 240 241 241 242 243 244 245 245 245 244 244 243 242 242 241 241 241 241 242 243 243 243 243 243 242 242 243 244 245 246 246 246 246 245 244
308 307 307 306 305 304 303 301 299 297 296 295 293 290 288 287 287 288 290 292 293 293 292 289 286 282 279 275 270 265 262 260 258 257 255 253 250 247 245 243 242 242 242 242 242 243 242 242 241 241 241 242 243 243 244 245 245 245 244 243 242 241 241 240 240 240 240 241 241 241 242 242 242 242 242 241 241 241 243 244 245 245 244 244 243
307 307 307 306 305 303 302 299 297 296 294 292 290 288 286 286 285 285 287 288 290 291 291 290 287 282 278 274 270 265 259 255 253 252 251 250 249 247 246 245 244 244 244 243 243 244 244 243 242 242 242 243 245 246 246 245 243 241 239 239 239 239 240 240 240 240 240 239 239 239 240 240 241 242 241 240 239 239 240 242 243 244 243 243 242
307 307 306 306 304 303 300 298 296 294 292 290 288 285 285 285 284 284 284 285 286 287 288 288 287 284 279 273 268 263 259 253 249 247 246 246 246 246 247 248 248 247 245 244 243 243 243 243 243 243 243 244 246 247 245 242 238 236 236 237 239 241 242 242 242 242 241 240 239 239 239 240 241 241 241 239 238 237 238 240 242 242 242 241 241
307 307 306 306 304 302 300 298 295 293 291 289 286 285 284 284 283 283 283 283 284 284 284 284 285 284 281 275 268 263 258 253 249 246 244 243 243 244 246 248 249 249 248 245 243 242 242 242 242 243 244 245 245 243 240 237 235 235 237 239 241 243 244 244 244 243 243 242 241 241 241 241 241 240 240 238 237 236 237 239 241 241 241 241 241
307 307 307 306 305 303 300 297 294 292 290 288 285 284 283 283 283 283 282 282 282 281 280 280 280 280 279 276 271 266 261 256 251 247 244 243 243 244 245 246 248 249 248 246 243 241 240 240 240 241 242 242 239 236 234 235 237 240 243 244 245 246 246 246 246 245 245 244 243 242 242 241 240 239 237 236 235 234 235 238 240 240 241 241 241
308 308 307 307 305 303 300 297 294 291 289 287 285 284 283 282 282 282 281 281 280 279 278 276 276 276 276 275 272 267 264 260 256 251 248 245 244 244 244 244 245 246 246 245 242 240 237 237 239 239 238 236 234 233 234 239 244 247 249 250 250 250 249 248 247 245 244 243 241 240 239 237 236 234 232 231 232 233 235 237 239 240 240 241 241
309 308 308 307 306 303 300 297 295 292 289 288 286 285 284 283 283 282 281 280 279 277 276 274 273 272 272 271 270 267 264 261 258 255 251 248 245 244 242 241 241 242 242 242 240 238 236 235 235 234 231 229 230 234 239 245 248 250 251 251 250 249 247 244 242 239 237 235 233 232 230 229 228 227 227 228 230 232 234 236 238 239 240 240 241
309 308 308 307 306 304 302 299 297 294 292 290 288 287 286 285 284 283 282 280 279 277 275 273 272 270 269 268 267 266 263 260 257 255 251 247 245 243 241 239 238 237 238 238 237 235 233 231 229 227 227 228 232 238 242 243 242 241 242 241 239 236 233 229 226 224 222 220 219 218 218 218 219 220 223 226 229 231 233 235 236 238 239 239 240
309 308 307 306 304 303 301 299 297 294 292 290 289 288 287 286 284 283 282 280 278 277 275 273 271 269 267 266 264 263 261 259 256 253 250 245 241 239 238 236 234 233 234 234 233 230 227 223 221 223 226 230 234 237 235 229 225 224 224 222 217 213 211 208 207 206 205 205 206 207 210 212 216 219 223 227 229 231 233 234 236 237 239 239 240
308 307 306 305 303 302 300 298 296 294 292 291 289 288 286 285 283 282 281 279 277 276 274 273 271 269 266 264 262 260 259 257 254 251 247 242 237 234 234 233 230 229 230 230 228 224 219 216 217 221 226 231 232 228 220 214 212 213 215 215 212 208 206 204 203 202 202 203 204 207 210 213 216 220 223 226 229 231 233 234 236 238 239 240 241
308 307 305 304 303 301 299 298 296 294 292 291 289 287 286 284 282 281 279 278 276 274 273 271 270 268 265 263 260 257 255 254 251 248 244 238 232 229 229 229 227 225 226 225 223 218 213 212 215 221 227 231 228 218 211 210 210 211 213 215 214 211 209 208 207 207 207 207 208 210 212 215 217 220 223 226 228 231 233 235 237 238 240 241 242
307 306 304 303 301 300 298 296 295 293 291 289 288 286 284 283 281 280 278 277 275 273 271 269 267 265 263 260 258 255 252 249 247 244 240 235 229 225 224 225 224 222 221 220 217 213 209 209 213 219 227 232 226 215 209 209 211 212 214 215 215 213 210 208 208 207 208 209 210 211 214 217 219 222 224 226 229 231 233 235 237 238 240 242 243
305 304 302 301 300 299 297 296 294 292 290 288 287 285 283 281 280 278 277 276 275 273 270 268 265 263 260 257 254 251 248 245 243 240 236 231 225 221 221 221 220 218 216 215 213 209 207 208 211 215 223 228 224 214 209 210 212 213 213 213 213 211 208 205 205 206 207 209 212 214 217 219 221 222 224 226 228 230 233 235 237 239 241 242 244
305 303 302 301 300 298 297 296 294 292 291 289 287 285 283 281 279 277 275 274 273 272 270 267 264 261 257 253 250 247 243 241 238 234 231 226 221 217 217 217 216 213 211 210 209 207 206 206 208 212 217 222 220 213 208 208 210 210 210 210 210 207 204 203 204 205 207 210 213 216 218 220 221 223 224 226 229 232 235 237 239 241 243 244 246
305 303 302 301 299 298 296 295 294 292 291 289 288 286 284 281 279 277 275 273 271 270 268 266 263 258 253 249 245 241 238 235 232 229 226 222 217 213 213 214 212 209 207 206 206 206 204 204 206 209 212 216 215 209 205 204 205 205 205 206 205 203 201 202 204 206 208 211 213 215 217 219 222 225 228 231 234 236 239 241 243 244 245 245 245
305 304 303 301 299 297 295 294 292 290 289 288 286 285 283 281 279 277 275 272 270 268 266 264 260 256 249 244 239 235 232 230 227 224 220 216 212 209 209 210 208 205 202 202 203 203 202 202 203 206 208 210 208 203 199 199 200 200 200 200 199 197 198 200 203 205 208 210 213 216 218 222 226 230 234 237 240 242 244 245 244 242 239 233 226
307 306 304 302 300 298 295 292 290 288 286 285 283 282 280 278 277 275 273 271 269 266 263 261 258 253 247 239 233 229 226 223 221 218 214 211 207 205 205 206 204 201 199 199 200 200 200 199 199 201 203 202 197 194 192 193 194 194 194 194 193 193 194 196 199 203 206 209 213 217 220 225 231 235 237 239 238 237 235 232 226 217 208 200 195
310 308 306 304 302 300 297 294 290 287 284 282 280 278 276 274 273 271 270 268 265 262 260 257 254 250 244 235 228 222 219 216 215 212 209 206 203 201 201 202 200 197 196 197 197 196 196 195 195 197 197 193 188 186 186 187 188 188 187 187 188 189 190 192 195 199 203 206 209 213 217 221 223 222 218 212 205 200 197 193 187 183 182 182 184
312 310 307 305 303 300 297 294 291 288 285 281 278 275 272 270 268 266 265 263 260 257 254 251 248 245 239 231 223 216 212 210 208 206 203 201 199 197 197 197 196 193 193 193 192 192 191 190 190 191 189 184 180 180 181 181 181 182 182 183 184 185 186 188 191 192 193 194 195 194 192 188 184 179 176 172 169 169 172 174 176 178 182 185 190
Height
5456 5452 5449 5445 5440 5437 5433 5428 5424 5420 5417 5413 5409 5406 5402 5398 5394 5389 5385 5382 5378 5373 5369 5364 5360 5356 5352 5349 5345 5339 5334 5328 5323 5317 5312 5307 5302 5298 5295 5293 5290 5288 5286 5286 5286 5286 5287 5289 5289 5289 5288 5289 5290 5290 5291 5292 5293 5295 5296 5297 5298 5300 5303 5306 5312 5320 5325 5327 5332 5339 5345 5352 5360 5367 5374 5382 5388 5393 5400 5408 5414 5420 5426 5432 5439
5446 5442 5438 5434 5430 5426 5422 5417 5413 5409 5405 5402 5398 5394 5390 5385 5380 5375 5371 5368 5363 5359 5354 5349 5345 5341 5337 5333 5329 5323 5318 5313 5308 5303 5297 5292 5287 5282 5279 5276 5274 5272 5271 5271 5272 5273 5274 5276 5278 5278 5276 5277 5279 5280 5280 5281 5282 5285 5286 5287 5288 5290 5292 5296 5300 5307 5314 5318 5321 5327 5333 5339 5347 5354 5359 5367 5374 5379 5387 5394 5401 5408 5414 5420 5427
5435 5431 5427 5423 5419 5414 5410 5406 5402 5398 5394 5389 5385 5381 5376 5371 5366 5361 5356 5353 5348 5344 5339 5334 5329 5325 5321 5317 5312 5307 5302 5296 5292 5288 5282 5276 5272 5268 5264 5261 5259 5257 5257 5257 5259 5260 5261 5263 5266 5267 5265 5266 5269 5270 5270 5271 5272 5274 5276 5277 5279 5281 5283 5286 5290 5296 5303 5308 5310 5315 5321 5327 5334 5341 5346 5352 5359 5366 5374 5381 5387 5395 5403 5408 5415
5425 5421 5416 5412 5408 5403 5398 5394 5390 5385 5381 5375 5371 5366 5361 5357 5352 5347 5342 5337 5333 5328 5324 5318 5314 5309 5305 5301 5296 5290 5285 5280 5276 5273 5266 5260 5256 5253 5251 5248 5246 5244 5244 5244 5246 5247 5249 5251 5254 5255 5255 5256 5258 5260 5261 5261 5263 5264 5267 5268 5270 5272 5274 5277 5281 5285 5291 5298 5302 5304 5309 5315 5322 5328 5333 5339 5345 5352 5361 5369 5375 5383 5390 5396 5403
5414 5410 5405 5400 5396 5392 5387 5382 5377 5372 5367 5362 5357 5352 5347 5343 5338 5333 5328 5323 5318 5313 5308 5303 5297 5293 5289 5284 5279 5274 5268 5263 5260 5256 5250 5244 5240 5239 5237 5236 5234 5233 5232 5233 5234 5235 5237 5240 5242 5244 5245 5246 5249 5251 5251 5252 5253 5255 5257 5259 5261 5263 5266 5268 5271 5275 5280 5287 5292 5294 5298 5304 5310 5316 5320 5326 5331 5339 5349 5356 5363 5370 5377 5384 5392
5403 5399 5394 5389 5384 5380 5375 5369 5364 5359 5353 5348 5343 5338 5334 5329 5323 5318 5313 5308 5303 5298 5292 5287 5282 5277 5272 5267 5262 5256 5250 5246 5244 5240 5234 5229 5226 5225 5224 5223 5222 5222 5222 5222 5222 5224 5226 5228 5231 5233 5235 5237 5239 5241 5242 5243 5244 5246 5248 5250 5252 5254 5257 5259 5262 5265 5269 5275 5281 5286 5288 5292 5298 5304 5309 5313 5319 5327 5335 5344 5352 5359 5365 5372 5379
5392 5387 5382 5377 5372 5367 5362 5357 5351 5346 5341 5336 5330 5325 5320 5315 5310 5304 5299 5294 5288 5283 5277 5272 5266 5261 5255 5250 5244 5238 5233 5230 5228 5224 5220 5215 5213 5212 5211 5210 5210 5210 5210 5211 5211 5213 5214 5217 5220 5222 5224 5226 5229 5231 5233 5234 5236 5237 5238 5241 5243 5245 5248 5250 5253 5256 5260 5265 5271 5276 5279 5282 5287 5293 5297 5300 5308 5316 5323 5331 5340 5346 5352 5359 5366
5380 5375 5370 5365 5359 5354 5349 5344 5339 5334 5328 5323 5317 5312 5306 5300 5295 5289 5284 5279 5274 5268 5262 5256 5250 5244 5238 5232 5227 5221 5216 5214 5212 5209 5205 5202 5200 5199 5198 5198 5198 5199 5199 5200 5201 5202 5204 5206 5208 5211 5213 5216 5218 5220 5223 5225 5226 5228 5229 5231 5233 5236 5238 5241 5244 5247 5251 5256 5261 5266 5270 5273 5277 5282 5285 5290 5298 5305 5311 5318 5326 5332 5339 5347 5353
5368 5363 5358 5353 5348 5343 5338 5332 5327 5321 5315 5310 5304 5298 5292 5286 5281 5275 5270 5264 5258 5252 5246 5240 5233 5227 5221 5215 5210 5205 5200 5198 5197 5194 5192 5189 5187 5186 5186 5186 5186 5187 5188 5189 5190 5192 5194 5195 5198 5200 5202 5205 5208 5210 5213 5215 5217 5219 5221 5222 5224 5227 5229 5232 5236 5239 5242 5247 5251 5256 5261 5265 5268 5271 5275 5281 5287 5293 5298 5305 5313 5321 5328 5336 5341
5358 5352 5347 5342 5336 5331 5326 5320 5314 5309 5303 5297 5291 5285 5280 5274 5268 5262 5256 5250 5243 5237 5230 5223 5217 5211 5205 5200 5194 5190 5187 5185 5183 5181 5179 5177 5175 5174 5174 5174 5174 5175 5177 5179 5180 5182 5184 5186 5188 5190 5192 5195 5198 5201 5204 5206 5208 5211 5212 5213 5215 5217 5221 5224 5228 5231 5234 5237 5242 5246 5252 5257 5259 5261 5265 5270 5275 5281 5287 5293 5301 5309 5317 5324 5329
5347 5342 5336 5330 5325 5319 5313 5308 5303 5297 5291 5285 5279 5273 5267 5261 5254 5248 5242 5235 5229 5222 5215 5209 5202 5196 5191 5186 5182 5178 5175 5174 5172 5169 5167 5166 5164 5162 5161 5161 5162 5164 5167 5169 5171 5172 5174 5176 5178 5180 5183 5185 5188 5191 5194 5197 5199 5201 5203 5205 5207 5209 5213 5216 5219 5222 5225 5229 5233 5237 5243 5248 5250 5251 5256 5260 5265 5271 5276 5281 5289 5298 5304 5311 5318
5336 5331 5325 5319 5313 5307 5301 5296 5290 5284 5278 5272 5266 5259 5253 5246 5240 5233 5226 5220 5214 5207 5201 5195 5189 5183 5178 5173 5170 5167 5165 5163 5161 5159 5157 5156 5153 5150 5149 5149 5151 5155 5157 5159 5161 5163 5165 5167 5169 5171 5174 5176 5178 5181 5184 5187 5190 5192 5193 5196 5198 5201 5204 5207 5210 5213 5216 5220 5225 5229 5234 5239 5241 5242 5246 5250 5255 5260 5266 5271 5279 5286 5291 5299 5307
5324 5319 5313 5307 5301 5295 5288 5282 5277 5270 5264 5258 5252 5245 5238 5232 5225 5217 5210 5204 5197 5191 5186 5180 5175 5170 5165 5162 5158 5156 5154 5153 5151 5149 5148 5146 5144 5140 5136 5137 5141 5146 5148 5150 5151 5153 5156 5157 5160 5163 5165 5167 5170 5172 5174 5177 5180 5182 5185 5187 5189 5192 5195 5198 5201 5205 5208 5212 5217 5221 5225 5228 5231 5234 5237 5240 5245 5251 5257 5263 5268 5274 5280 5288 5297
5312 5306 5301 5294 5287 5281 5274 5268 5262 5256 5249 5243 5236 5230 5223 5216 5210 5202 5194 5188 5181 5175 5169 5164 5159 5155 5151 5148 5145 5143 5142 5141 5140 5139 5138 5136 5135 5131 5126 5127 5132 5136 5138 5140 5142 5144 5147 5149 5151 5154 5155 5158 5160 5162 5165 5167 5171 5174 5176 5178 5181 5184 5187 5190 5193 5197 5200 5204 5208 5213 5215 5218 5222 5226 5228 5231 5237 5242 5247 5253 5258 5263 5270 5277 5286
5299 5293 5287 5280 5273 5266 5260 5254 5248 5241 5234 5228 5221 5214 5207 5201 5194 5187 5179 5172 5166 5160 5155 5149 5145 5141 5137 5135 5132 5131 5130 5130 5129 5129 5128 5127 5125 5121 5118 5120 5124 5126 5128 5131 5134 5136 5138 5140 5142 5145 5147 5149 5151 5153 5156 5158 5161 5165 5168 5171 5174 5176 5179 5183 5185 5188 5192 5195 5199 5203 5206 5209 5213 5217 5221 5224 5228 5232 5236 5242 5248 5254 5261 5268 5275
5285 5279 5273 5266 5259 5252 5245 5239 5233 5227 5220 5213 5207 5200 5193 5186 5179 5171 5164 5158 5151 5145 5141 5136 5132 5129 5126 5123 5121 5120 5119 5118 5119 5119 5118 5117 5115 5112 5111 5113 5116 5117 5119 5122 5125 5127 5129 5131 5134 5136 5139 5141 5143 5145 5147 5150 5153 5157 5160 5163 5165 5168 5172 5174 5177 5180 5183 5186 5190 5193 5196 5200 5205 5209 5213 5216 5220 5222 5226 5233 5240 5245 5252 5259 5264
5270 5264 5258 5251 5243 5237 5230 5223 5218 5212 5205 5198 5192 5186 5179 5171 5164 5156 5149 5143 5138 5132 5127 5123 5120 5117 5115 5112 5110 5109 5108 5108 5108 5109 5109 5108 5105 5103 5104 5106 5107 5109 5111 5113 5116 5119 5121 5123 5125 5128 5131 5133 5135 5137 5139 5141 5144 5149 5152 5155 5157 5160 5164 5166 5168 5171 5174 5177 5181 5184 5188 5193 5196 5201 5204 5208 5211 5214 5219 5226 5231 5234 5241 5248 5253
5255 5249 5243 5236 5228 5221 5214 5208 5202 5195 5189 5183 5176 5170 5164 5157 5149 5142 5135 5130 5125 5120 5115 5112 5109 5106 5104 5102 5100 5099 5098 5098 5098 5099 5100 5099 5096 5095 5096 5097 5099 5101 5103 5105 5108 5111 5113 5115 5117 5120 5123 5125 5127 5129 5130 5132 5136 5141 5144 5147 5150 5153 5155 5157 5159 5163 5165 5169 5173 5176 5180 5184 5188 5192 5196 5200 5204 5207 5212 5218 5219 5222 5229 5237 5241
5241 5234 5228 5221 5213 5206 5199 5193 5186 5179 5172 5166 5160 5153 5147 5141 5135 5128 5122 5117 5113 5109 5104 5101 5099 5096 5093 5091 5090 5089 5089 5088 5088 5089 5090 5090 5087 5086 5087 5089 5091 5093 5095 5098 5100 5102 5105 5107 5109 5111 5115 5117 5119 5121 5123 5125 5129 5133 5136 5139 5143 5146 5147 5148 5151 5155 5158 5161 5164 5168 5172 5175 5179 5184 5188 5192 5195 5198 5202 5207 5210 5214 5220 5224 5229
5227 5220 5213 5206 5198 5191 5184 5177 5170 5163 5155 5149 5143 5137 5131 5125 5120 5115 5110 5105 5101 5098 5094 5091 5088 5086 5083 5082 5080 5080 5079 5079 5079 5080 5081 5081 5079 5078 5079 5081 5083 5086 5088 5090 5092 5094 5096 5099 5101 5104 5107 5109 5112 5114 5116 5118 5121 5125 5127 5131 5135 5138 5138 5140 5144 5147 5150 5153 5156 5160 5164 5168 5171 5176 5179 5182 5185 5188 5192 5197 5201 5206 5210 5213 5217
5213 5206 5198 5191 5184 5177 5169 5161 5154 5147 5140 5133 5128 5122 5116 5110 5106 5102 5098 5094 5090 5087 5084 5081 5079 5076 5074 5073 5072 5071 5070 5070 5070 5071 5072 5072 5071 5070 5072 5074 5076 5078 5080 5082 5084 5087 5090 5093 5095 5097 5099 5102 5105 5107 5108 5110 5112 5116 5120 5124 5127 5129 5130 5133 5137 5139 5142 5145 5148 5152 5156 5160 5164 5167 5170 5172 5175 5178 5182 5187 5191 5196 5201 5205 5208
5200 5193 5185 5178 5170 5163 5155 5147 5139 5132 5126 5119 5114 5109 5103 5097 5093 5089 5086 5083 5080 5077 5074 5072 5069 5068 5066 5065 5063 5063 5062 5061 5062 5063 5064 5065 5064 5063 5064 5066 5068 5070 5073 5075 5079 5082 5084 5087 5088 5089 5091 5093 5096 5098 5100 5102 5105 5109 5114 5117 5119 5120 5122 5126 5129 5132 5135 5138 5141 5144 5148 5152 5155 5158 5161 5163 5164 5167 5172 5178 5182 5187 5192 5196 5200
5186 5179 5171 5164 5157 5149 5141 5133 5126 5119 5113 5107 5102 5097 5092 5087 5082 5079 5075 5073 5070 5067 5065 5062 5061 5059 5058 5056 5055 5055 5054 5054 5054 5055 5056 5057 5057 5056 5057 5059 5061 5063 5067 5070 5073 5075 5077 5079 5080 5080 5082 5086 5088 5090 5092 5095 5098 5103 5106 5109 5110 5112 5115 5120 5123 5126 5129 5131 5134 5136 5139 5142 5145 5148 5150 5152 5153 5157 5163 5170 5174 5178 5182 5187 5191
5171 5163 5156 5149 5142 5135 5128 5120 5113 5107 5101 5096 5091 5086 5081 5077 5073 5069 5066 5063 5061 5058 5056 5054 5052 5051 5050 5049 5048 5047 5047 5046 5047 5048 5049 5050 5051 5050 5050 5052 5055 5057 5060 5063 5066 5069 5070 5071 5073 5074 5076 5079 5081 5083 5086 5089 5092 5096 5098 5101 5104 5106 5110 5113 5116 5118 5120 5122 5125 5127 5130 5133 5135 5138 5140 5142 5145 5149 5155 5161 5164 5168 5172 5176 5179
5156 5148 5141 5134 5128 5121 5115 5108 5102 5095 5090 5085 5080 5076 5072 5068 5064 5061 5057 5055 5052 5050 5048 5046 5044 5043 5042 5041 5041 5040 5040 5040 5040 5041 5042 5043 5044 5045 5045 5046 5049 5051 5053 5057 5060 5062 5063 5065 5066 5068 5070 5072 5075 5077 5080 5083 5086 5089 5091 5094 5096 5099 5102 5105 5107 5109 5111 5114 5116 5119 5122 5124 5127 5129 5132 5135 5138 5141 5146 5150 5154 5157 5161 5164 5167
5142 5134 5127 5121 5114 5108 5103 5097 5091 5085 5080 5075 5070 5066 5063 5059 5056 5053 5050 5047 5045 5043 5041 5039 5037 5036 5035 5035 5034 5034 5033 5033 5033 5034 5036 5037 5038 5039 5040 5041 5043 5045 5048 5051 5053 5055 5057 5059 5061 5062 5064 5067 5069 5072 5074 5077 5079 5081 5083 5086 5089 5091 5094 5097 5099 5101 5104 5106 5109 5112 5114 5116 5119 5122 5125 5128 5130 5132 5135 5139 5143 5146 5149 5153 5157
5127 5121 5115 5109 5103 5097 5091 5086 5081 5076 5071 5066 5062 5058 5054 5051 5048 5046 5043 5041 5039 5037 5035 5032 5031 5029 5029 5028 5029 5028 5028 5027 5028 5028 5030 5031 5033 5034 5034 5036 5037 5040 5042 5045 5047 5049 5051 5053 5055 5057 5059 5061 5063 5065 5068 5070 5072 5074 5076 5079 5082 5084 5087 5089 5092 5095 5097 5099 5102 5105 5107 5110 5113 5115 5118 5120 5122 5124 5127 5131 5134 5137 5139 5143 5147
5114 5109 5103 5097 5092 5086 5081 5076 5071 5067 5062 5058 5054 5051 5047 5044 5041 5039 5036 5035 5033 5030 5028 5027 5025 5024 5023 5023 5023 5023 5022 5022 5022 5023 5024 5026 5027 5028 5029 5031 5033 5035 5037 5039 5041 5044 5046 5048 5050 5052 5054 5055 5057 5059 5061 5063 5065 5068 5070 5072 5075 5077 5080 5082 5085 5088 5091 5093 5096 5098 5101 5103 5106 5108 5110 5113 5115 5117 5120 5123 5126 5128 5130 5133 5138
5102 5097 5091 5086 5081 5076 5071 5066 5061 5058 5054 5050 5047 5043 5040 5037 5035 5033 5030 5029 5027 5025 5023 5021 5020 5019 5018 5018 5018 5018 5018 5018 5018 5018 5019 5020 5022 5024 5025 5026 5028 5030 5032 5034 5036 5038 5041 5043 5045 5046 5048 5050 5052 5053 5055 5057 5059 5062 5064 5066 5069 5071 5073 5076 5080 5082 5085 5087 5089 5092 5094 5096 5099 5101 5103 5106 5108 5110 5113 5115 5118 5120 5122 5125 5129
5091 5086 5080 5076 5071 5066 5061 5057 5053 5049 5046 5043 5040 5037 5033 5030 5028 5027 5025 5024 5022 5020 5017 5016 5015 5015 5014 5014 5014 5014 5013 5013 5013 5014 5015 5016 5017 5019 5021 5022 5023 5025 5027 5029 5031 5034 5036 5038 5039 5041 5043 5045 5047 5048 5050 5052 5054 5056 5058 5061 5063 5065 5068 5071 5074 5076 5078 5080 5082 5085 5087 5090 5092 5094 5097 5100 5102 5103 5106 5108 5110 5113 5115 5118 5121
5080 5075 5070 5065 5061 5056 5052 5049 5045 5042 5038 5036 5033 5031 5028 5024 5021 5020 5019 5018 5017 5016 5013 5011 5010 5010 5010 5010 5009 5009 5009 5009 5009 5009 5010 5012 5013 5015 5016 5017 5019 5021 5022 5025 5027 5029 5031 5032 5034 5036 5038 5040 5041 5043 5045 5047 5049 5051 5053 5055 5057 5059 5062 5064 5067 5068 5071 5073 5076 5078 5080 5083 5086 5088 5091 5093 5095 5097 5099 5101 5103 5106 5108 5111 5114
5069 5064 5059 5055 5051 5047 5043 5040 5037 5034 5031 5029 5026 5024 5023 5020 5017 5014 5013 5012 5011 5010 5009 5008 5006 5006 5006 5006 5005 5005 5005 5005 5005 5005 5006 5008 5009 5011 5012 5014 5015 5017 5018 5020 5022 5024 5025 5027 5029 5031 5033 5035 5036 5038 5040 5042 5044 5045 5047 5049 5051 5053 5056 5058 5060 5062 5064 5067 5069 5071 5074 5076 5079 5082 5084 5086 5088 5090 5092 5094 5096 5099 5102 5104 5107
5057 5053 5049 5045 5041 5037 5034 5031 5029 5026 5024 5022 5019 5017 5016 5015 5013 5011 5008 5007 5006 5004 5004 5003 5003 5002 5002 5002 5002 5001 5001 5001 5002 5002 5003 5004 5006 5007 5009 5010 5011 5012 5014 5016 5018 5019 5021 5023 5025 5026 5028 5030 5032 5033 5035 5037 5039 5040 5042 5044 5046 5048 5050 5052 5054 5057 5059 5061 5063 5066 5068 5070 5073 5075 5077 5079 5082 5084 5085 5087 5090 5092 5095 5098 5100
5047 5043 5039 5035 5032 5028 5025 5022 5020 5018 5016 5015 5013 5011 5010 5009 5008 5006 5004 5003 5002 5000 4999 4998 4998 4998 4998 4998 4998 4998 4998 4998 4999 4999 5000 5001 5002 5004 5005 5006 5007 5008 5010 5012 5014 5015 5017 5019 5020 5022 5024 5025 5027 5029 5030 5032 5033 5035 5037 5039 5041 5043 5045 5047 5049 5051 5053 5056 5058 5060 5063 5065 5067 5069 5071 5073 5075 5077 5079 5081 5084 5087 5090 5092 5094
5037 5034 5030 5026 5022 5019 5016 5013 5012 5010 5009 5008 5007 5005 5004 5003 5002 5001 5000 4999 4998 4996 4995 4994 4993 4994 4994 4994 4994 4994 4994 4995 4996 4996 4997 4998 4999 5000 5001 5002 5003 5004 5006 5008 5010 5011 5013 5014 5016 5018 5019 5021 5023 5024 5025 5027 5029 5030 5032 5034 5036 5038 5040 5042 5043 5045 5047 5050 5053 5055 5057 5059 5062 5063 5065 5067 5069 5071 5074 5076 5078 5081 5084 5086 5089
5029 5025 5021 5017 5013 5010 5008 5006 5004 5003 5002 5001 5001 5000 4999 4998 4997 4996 4995 4994 4993 4992 4991 4990 4989 4989 4989 4990 4990 4990 4990 4991 4992 4993 4994 4995 4996 4997 4997 4998 4999 5000 5002 5004 5006 5007 5009 5010 5012 5014 5015 5017 5018 5019 5021 5022 5024 5026 5028 5031 5032 5033 5035 5036 5037 5039 5042 5044 5047 5049 5052 5054 5056 5058 5060 5061 5063 5066 5068 5071 5073 5076 5078 5081 5083
5020 5017 5013 5010 5007 5004 5001 4999 4998 4997 4996 4995 4995 4994 4993 4992 4991 4990 4990 4989 4988 4987 4987 4986 4985 4984 4985 4985 4986 4986 4986 4987 4988 4989 4990 4991 4992 4993 4994 4994 4995 4996 4998 5000 5002 5003 5005 5006 5008 5009 5011 5012 5014 5015 5017 5018 5021 5023 5025 5026 5027 5028 5029 5030 5031 5033 5036 5038 5041 5043 5046 5048 5050 5052 5054 5056 5059 5061 5064 5066 5069 5071 5073 5076 5078
5013 5009 5007 5004 5001 4999 4996 4994 4992 4991 4990 4989 4989 4988 4987 4986 4986 4985 4984 4984 4983 4982 4982 4982 4981 4980 4980 4981 4981 4982 4982 4983 4983 4985 4986 4987 4988 4989 4990 4991 4992 4993 4994 4996 4998 5000 5001 5003 5004 5006 5007 5008 5010 5012 5013 5015 5017 5019 5020 5020 5021 5022 5022 5024 5025 5027 5029 5032 5034 5037 5040 5042 5044 5047 5050 5052 5054 5057 5059 5062 5064 5066 5068 5071 5073
5006 5003 5000 4998 4996 4994 4991 4989 4988 4986 4985 4984 4983 4982 4982 4981 4980 4979 4978 4978 4977 4977 4977 4976 4976 4976 4976 4976 4977 4977 4978 4978 4979 4980 4982 4983 4984 4985 4986 4987 4988 4989 4991 4992 4994 4996 4998 5000 5001 5002 5004 5005 5007 5009 5011 5012 5013 5014 5014 5015 5015 5016 5016 5017 5019 5021 5023 5025 5028 5031 5034 5037 5040 5043 5045 5048 5050 5053 5055 5057 5060 5062 5064 5066 5068
5001 4998 4995 4992 4990 4988 4986 4984 4983 4981 4980 4979 4977 4976 4976 4975 4974 4973 4972 4972 4972 4971 4971 4971 4971 4971 4972 4972 4972 4973 4973 4974 4975 4976 4977 4979 4980 4981 4982 4983 4984 4986 4987 4989 4991 4993 4995 4996 4998 4999 5001 5003 5005 5006 5008 5009 5010 5010 5011 5011 5012 5012 5012 5013 5015 5016 5019 5021 5024 5027 5030 5033 5036 5039 5042 5044 5047 5049 5051 5053 5055 5057 5059 5061 5063
4996 4993 4990 4987 4985 4983 4981 4979 4977 4976 4974 4973 4971 4970 4970 4969 4968 4967 4967 4966 4966 4966 4966 4966 4966 4966 4967 4967 4968 4968 4969 4970 4971 4972 4973 4975 4976 4977 4978 4980 4981 4983 4984 4986 4988 4991 4992 4994 4995 4997 4998 5000 5002 5004 5005 5006 5007 5008 5008 5009 5010 5010 5011 5012 5014 5015 5017 5020 5022 5025 5028 5031 5034 5036 5039 5041 5043 5045 5048 5050 5051 5053 5055 5057 5059
4990 4987 4984 4982 4979 4977 4975 4973 4971 4970 4968 4967 4965 4964 4963 4963 4962 4961 4961 4961 4961 4961 4961 4961 4961 4962 4962 4963 4963 4964 4965 4966 4967 4968 4969 4971 4972 4974 4975 4976 4978 4980 4981 4984 4986 4988 4990 4991 4993 4994 4996 4998 5000 5001 5002 5004 5005 5006 5007 5008 5009 5009 5011 5012 5013 5015 5017 5019 5022 5024 5026 5029 5031 5034 5036 5038 5040 5042 5044 5046 5047 5049 5050 5052 5054
4984 4981 4978 4976 4973 4971 4969 4967 4965 4963 4962 4960 4959 4958 4957 4957 4956 4955 4955 4955 4955 4955 4956 4956 4956 4957 4957 4958 4959 4960 4961 4962 4963 4964 4966 4967 4969 4971 4972 4973 4975 4977 4979 4982 4984 4986 4987 4989 4991 4992 4994 4995 4997 4999 5000 5002 5003 5004 5005 5006 5008 5009 5010 5011 5013 5014 5016 5018 5020 5022 5025 5027 5029 5031 5033 5035 5037 5039 5040 5042 5043 5045 5046 5048 5050
4978 4974 4971 4969 4966 4964 4962 4960 4958 4957 4955 4954 4953 4952 4951 4950 4950 4949 4949 4949 4949 4950 4950 4951 4951 4952 4953 4954 4955 4956 4957 4958 4959 4961 4962 4964 4966 4967 4969 4970 4972 4975 4977 4979 4981 4983 4985 4987 4989 4990 4992 4993 4995 4997 4999 5000 5001 5003 5004 5005 5007 5008 5009 5010 5012 5013 5015 5017 5019 5021 5023 5025 5027 5029 5031 5032 5034 5036 5037 5038 5040 5041 5043 5044 5046
4970 4967 4964 4962 4959 4956 4954 4952 4951 4949 4948 4947 4946 4945 4944 4944 4943 4943 4943 4943 4943 4944 4944 4945 4946 4947 4948 4949 4950 4951 4953 4954 4956 4957 4959 4961 4963 4964 4966 4968 4970 4973 4975 4977 4979 4981 4983 4985 4987 4989 4990 4992 4993 4995 4997 4998 5000 5001 5003 5004 5005 5007 5008 5009 5011 5012 5014 5016 5017 5019 5021 5023 5025 5026 5028 5030 5031 5032 5034 5035 5037 5038 5039 5040 5042
4962 4959 4956 4954 4951 4949 4947 4944 4943 4941 4940 4939 4938 4938 4937 4937 4937 4937 4937 4936 4937 4937 4938 4939 4940 4941 4943 4944 4946 4947 4949 4950 4952 4954 4956 4958 4960 4962 4964 4966 4968 4970 4973 4975 4977 4979 4981 4983 4985 4987 4989 4990 4991 4993 4995 4997 4998 5000 5001 5003 5004 5005 5007 5008 5010 5011 5013 5015 5016 5018 5019 5021 5023 5024 5026 5027 5028 5030 5031 5032 5033 5034 5036 5037 5038
4954 4951 4948 4946 4944 4941 4939 4937 4935 4934 4933 4932 4931 4931 4930 4930 4930 4930 4930 4931 4931 4931 4932 4933 4934 4936 4937 4939 4941 4943 4945 4947 4948 4951 4953 4955 4957 4959 4961 4963 4966 4968 4971 4973 4975 4977 4980 4982 4984 4986 4988 4989 4990 4991 4993 4995 4997 4999 5000 5002 5003 5004 5006 5007 5009 5010 5012 5013 5015 5016 5018 5019 5021 5022 5023 5025 5026 5027 5028 5029 5030 5031 5032 5033 5034
4946 4943 4940 4937 4935 4933 4931 4929 4928 4927 4926 4925 4925 4924 4924 4924 4924 4924 4925 4925 4925 4926 4927 4927 4929 4930 4932 4934 4936 4939 4941 4943 4945 4947 4950 4952 4955 4957 4959 4961 4964 4966 4969 4971 4973 4976 4978 4981 4983 4985 4986 4987 4989 4990 4992 4994 4996 4998 4999 5001 5002 5003 5005 5006 5008 5009 5011 5012 5014 5015 5016 5018 5019 5020 5021 5022 5023 5024 5025 5025 5026 5027 5028 5030 5031
4938 4935 4932 4929 4927 4925 4923 4921 4920 4919 4918 4918 4918 4918 4918 4918 4918 4919 4919 4920 4921 4921 4922 4923 4924 4925 4927 4929 4932 4934 4937 4939 4942 4944 4947 4950 4952 4955 4957 4959 4962 4965 4967 4970 4972 4974 4977 4979 4982 4984 4985 4986 4988 4989 4991 4993 4995 4997 4998 5000 5001 5003 5004 5006 5007 5008 5010 5011 5013 5014 5015 5016 5017 5018 5019 5019 5020 5021 5022 5022 5024 5025 5026 5028 5030
4930 4927 4924 4922 4919 4917 4915 4914 4912 4911 4911 4911 4911 4911 4912 4912 4913 4914 4914 4915 4916 4917 4918 4919 4920 4921 4923 4925 4927 4930 4933 4936 4939 4941 4944 4947 4950 4953 4955 4958 4960 4963 4966 4968 4971 4973 4976 4978 4981 4983 4984 4985 4987 4989 4991 4992 4994 4996 4997 4999 5001 5002 5004 5005 5006 5008 5009 5011 5012 5013 5014 5015 5015 5016 5017 5017 5018 5019 5020 5022 5023 5024 5026 5028 5030
4923 4920 4917 4914 4912 4910 4908 4906 4905 4904 4904 4904 4904 4905 4905 4907 4908 4909 4910 4911 4912 4913 4914 4915 4916 4918 4919 4921 4923 4927 4930 4933 4936 4939 4942 4945 4948 4951 4953 4956 4959 4962 4965 4967 4970 4973 4975 4978 4980 4982 4983 4985 4986 4988 4990 4992 4993 4995 4997 4999 5000 5002 5003 5005 5006 5007 5009 5010 5011 5012 5013 5013 5014 5015 5016 5017 5018 5020 5021 5022 5024 5025 5027 5028 5030